Location: Ahstedt
(52.2048°N, 10.1060°E)
Time: 07:24:51
(UTC+00:00)

Thor Agena Rocket - Pass Details

Date: 18 January 2026
Orbit: 755 x 801 km, 99.1° (Epoch: 18 February)

Event Time Altitude Azimuth Distance (km) Brightness Sun altitude
Rises 05:37:57 0° 18° (NNE) 3,246 6.8 -14.9°
Reaches altitude 10° 05:40:18 10° 23° (NNE) 2,322 6.1 -14.5°
Maximum altitude 05:45:20 57° 102° (ESE) 913 4.3 -13.8°
Drops below altitude 10° 05:50:24 10° 181° (S) 2,334 6.2 -13.1°
Sets 05:52:45 0° 186° (S) 3,265 6.9 -12.7°
